This is the latest recevied weather packets stored in our database for station/object KI4NG. If no packets are shown the sender has not sent any weather packets the latest 10 day(s).
| Time | Temp. | Humidity | Pressure | Rain* | Wind** | Luminosity | Snow |
|---|---|---|---|---|---|---|---|
| 1777129466 | 20° C | 84% | 1012.2 hPa | 0 mm | - | 331 W/m² | - |
| 1777129165 | 20° C | 84% | 1012.4 hPa | 0 mm | - | 347 W/m² | - |
| 1777128861 | 20° C | 83% | 1012.3 hPa | 0 mm | - | 288 W/m² | - |
| 1777128558 | 20° C | 83% | 1012.5 hPa | 0 mm | - | 253 W/m² | - |
| 1777128255 | 19.44° C | 83% | 1012.4 hPa | 0 mm | - | 192 W/m² | - |
| 1777127953 | 20° C | 82% | 1012.4 hPa | 0 mm | - | 197 W/m² | - |
| 1777127650 | 20° C | 82% | 1012.4 hPa | 0 mm | - | 291 W/m² | - |
| 1777127347 | 19.44° C | 86% | 1012.3 hPa | 0 mm | - | 462 W/m² | - |
| 1777127043 | 18.33° C | 86% | 1012.4 hPa | 0 mm | - | 361 W/m² | - |
| 1777126738 | 17.78° C | 87% | 1012.3 hPa | 0 mm | - | 275 W/m² | - |
| 1777126435 | 17.78° C | 90% | 1012.5 hPa | 0 mm | - | 224 W/m² | - |
| 1777126130 | 17.22° C | 92% | 1012.4 hPa | 0 mm | - | 201 W/m² | - |
| 1777125827 | 17.22° C | 92% | 1012.4 hPa | 0 mm | - | 178 W/m² | - |
| 1777125523 | 17.22° C | 94% | 1012.5 hPa | 0 mm | - | 156 W/m² | - |
| 1777125218 | 16.67° C | 94% | 1012 hPa | 0 mm | - | 123 W/m² | - |
| 1777124913 | 16.67° C | 96% | 1012.3 hPa | 0 mm | - | 117 W/m² | - |
| 1777124611 | 16.67° C | 96% | 1012.3 hPa | 0 mm | - | 89 W/m² | - |
| 1777124306 | 16.67° C | 96% | 1012.3 hPa | 0 mm | - | 86 W/m² | - |
| 1777124004 | 16.11° C | 96% | 1012.4 hPa | 0 mm | - | 80 W/m² | - |
| 1777123700 | 16.67° C | 96% | 1012.2 hPa | 0 mm | - | 101 W/m² | - |
| 1777123396 | 16.11° C | 96% | 1012.2 hPa | 0 mm | - | 98 W/m² | - |
| 1777123092 | 16.11° C | 96% | 1012.3 hPa | 0 mm | - | 91 W/m² | - |
* Rain latest hour (hover to see other rain measurements)
** Current wind speed in m/s (hover to see current wind gust speed)